WX3I Weather Reports


time (UTC)temp
C
wind
direction
speed
KPH
gust
KPH
rain 1hr
cm
rain 24hr
cm
rain mn
cm
humidity
%
barometer
mb
20260507011004 18 18 3.2 4.8 0.18 0.89 0.84 86 1010.6
20260507010504 18 50 0.0 1.6 0.00 0.71 0.66 85 1010.6
20260507010005 18 151 0.0 4.8 0.00 0.71 0.66 84 1010.4
20260507005504 18 132 0.0 3.2 0.00 0.71 0.66 84 1010.4
20260507004504 18 268 0.0 3.2 0.00 0.71 0.66 83 1010.4
20260507004004 18 33 0.0 1.6 0.00 0.71 0.66 84 1010.3
20260507003504 18 257 0.0 0.0 0.00 0.71 0.66 84 1010.1
20260507002504 18 255 0.0 3.2 0.00 0.71 0.66 83 1009.9
20260507002004 18 256 1.6 4.8 0.00 0.71 0.66 83 1009.9
20260507001504 18 255 0.0 3.2 0.00 0.71 0.66 83 1010.0
20260507001005 18 155 0.0 8.0 0.00 0.71 0.66 83 1009.8
20260507000505 18 267 0.0 3.2 0.00 0.71 0.66 82 1009.9
20260507000005 18 229 1.6 8.0 0.00 0.71 0.66 82 1009.8
20260506235504 18 184 1.6 4.8 0.00 0.71 0.66 83 1009.7
20260506235004 18 187 0.0 3.2 0.00 0.71 0.66 82 1009.6
20260506234004 18 215 0.0 8.0 0.00 0.71 0.66 82 1009.7
20260506233504 18 246 3.2 8.0 0.00 0.71 0.66 82 1009.6
20260506233004 18 168 1.6 4.8 0.00 0.71 0.66 83 1009.7
20260506232504 18 230 1.6 4.8 0.00 0.71 0.66 82 1009.7
20260506231504 18 192 0.0 8.0 0.00 0.71 0.66 82 1009.6
20260506231004 18 215 1.6 4.8 0.00 0.71 0.66 81 1009.6
20260506230504 18 197 1.6 8.0 0.00 0.71 0.66 81 1009.7
20260506230004 18 171 1.6 4.8 0.00 0.71 0.66 81 1009.7
20260506225504 18 228 1.6 4.8 0.00 0.71 0.66 81 1009.7
20260506224504 18 343 0.0 4.8 0.00 0.71 0.66 81 1009.5
20260506224004 18 111 1.6 8.0 0.00 0.71 0.66 80 1009.5
20260506223004 19 199 1.6 4.8 0.00 0.71 0.66 80 1009.5
20260506222504 18 111 1.6 4.8 0.00 0.71 0.66 80 1009.5
20260506222004 18 194 3.2 9.7 0.00 0.71 0.66 80 1009.5
20260506221504 19 135 3.2 9.7 0.00 0.71 0.66 80 1009.4
20260506221004 19 217 1.6 4.8 0.00 0.71 0.66 80 1009.3
20260506220505 19 176 1.6 8.0 0.00 0.71 0.66 80 1009.4
20260506220005 18 13 1.6 4.8 0.00 0.71 0.66 81 1009.5
20260506215504 19 283 4.8 9.7 0.00 0.71 0.66 81 1009.5
20260506215005 19 279 3.2 9.7 0.00 0.71 0.66 80 1009.4
20260506214503 19 36 1.6 8.0 0.00 0.71 0.66 80 1009.4
20260506214004 19 45 1.6 8.0 0.00 0.71 0.66 80 1009.2
20260506213505 19 251 1.6 8.0 0.00 0.71 0.66 80 1009.2
20260506212504 19 215 4.8 11.3 0.00 0.71 0.66 80 1009.1
20260506211504 18 259 3.2 8.0 0.00 0.71 0.66 80 1009.1
20260506211004 18 336 1.6 9.7 0.00 0.71 0.66 82 1009.1
20260506210504 18 191 3.2 11.3 0.00 0.71 0.66 83 1009.0
20260506210004 18 172 3.2 9.7 0.00 0.71 0.66 82 1009.0
20260506205504 18 226 1.6 8.0 0.00 0.71 0.66 84 1009.1
20260506205004 18 196 3.2 11.3 0.00 0.71 0.66 82 1009.2
20260506204004 18 200 3.2 12.9 0.00 0.71 0.66 82 1009.0
20260506203504 18 319 1.6 8.0 0.00 0.71 0.66 83 1009.0
20260506203004 18 347 3.2 12.9 0.00 0.71 0.66 83 1008.9
20260506202505 18 154 3.2 9.7 0.00 0.71 0.66 82 1008.9
20260506201504 17 229 3.2 11.3 0.00 0.71 0.66 86 1008.9
20260506200504 17 222 1.6 4.8 0.00 0.71 0.66 86 1009.1
20260506200004 17 221 1.6 9.7 0.00 0.71 0.66 87 1009.1
20260506195504 17 220 3.2 11.3 0.00 0.71 0.66 87 1009.2
20260506195004 17 192 1.6 11.3 0.00 0.71 0.66 87 1009.2
20260506194504 17 155 4.8 11.3 0.00 0.71 0.66 86 1009.2
20260506194004 17 184 1.6 16.1 0.00 0.71 0.66 87 1009.2
20260506193504 17 214 4.8 12.9 0.00 0.71 0.66 87 1009.2
20260506193004 16 183 3.2 12.9 0.00 0.71 0.66 88 1009.2
20260506192504 16 196 4.8 12.9 0.00 0.71 0.66 88 1009.2
20260506192004 16 226 3.2 9.7 0.00 0.71 0.66 88 1009.3
20260506191004 16 192 1.6 4.8 0.00 0.71 0.66 90 1009.6
20260506190505 16 281 3.2 9.7 0.00 0.71 0.66 90 1009.6
20260506190005 16 312 3.2 11.3 0.00 0.71 0.66 90 1009.6
20260506185504 16 208 3.2 11.3 0.00 0.71 0.66 90 1009.6
20260506185004 16 250 3.2 9.7 0.00 0.71 0.66 90 1009.6
20260506184504 16 219 1.6 14.5 0.00 0.71 0.66 91 1009.7
20260506184004 16 211 4.8 8.0 0.00 0.71 0.66 91 1009.9
20260506183504 16 173 3.2 9.7 0.00 0.71 0.66 91 1009.9
20260506183005 16 204 8.0 16.1 0.00 0.71 0.66 91 1009.9
20260506182504 16 218 4.8 9.7 0.00 0.71 0.66 92 1009.9
20260506181004 16 219 4.8 9.7 0.00 0.71 0.66 90 1009.9
20260506180504 16 190 3.2 9.7 0.00 0.71 0.66 90 1009.9
20260506180005 16 230 3.2 8.0 0.00 0.71 0.66 90 1009.9
20260506175004 16 185 4.8 12.9 0.03 0.71 0.66 90 1010.0
20260506174504 16 210 4.8 11.3 0.03 0.71 0.66 90 1010.0
20260506174004 16 189 8.0 16.1 0.03 0.71 0.66 90 1010.0
20260506173004 16 201 8.0 14.5 0.03 0.71 0.66 90 1009.9
20260506172504 16 194 4.8 14.5 0.08 0.71 0.66 90 1009.9
20260506172004 16 178 1.6 9.7 0.10 0.71 0.66 91 1010.1
20260506171504 16 208 6.4 14.5 0.10 0.71 0.66 92 1010.2
20260506171004 16 196 4.8 14.5 0.10 0.71 0.66 92 1010.2
20260506170004 16 180 6.4 12.9 0.10 0.71 0.66 92 1010.1
20260506165504 16 205 8.0 19.3 0.13 0.71 0.66 92 1010.2
20260506165005 16 207 8.0 16.1 0.13 0.69 0.64 92 1010.1
20260506164004 16 205 9.7 19.3 0.20 0.69 0.64 92 1010.1
20260506163004 15 206 6.4 19.3 0.20 0.66 0.61 93 1010.3
20260506162504 15 213 9.7 14.5 0.18 0.64 0.58 93 1010.1
20260506161504 15 221 9.7 16.1 0.25 0.61 0.56 93 1010.4
20260506161004 15 210 9.7 20.9 0.30 0.61 0.56 93 1010.8
20260506160504 15 184 6.4 12.9 0.33 0.61 0.56 93 1011.1
20260506160004 15 199 8.0 14.5 0.36 0.58 0.56 93 1011.2
20260506155504 15 209 8.0 14.5 0.36 0.58 0.53 92 1011.3
20260506154504 15 191 4.8 12.9 0.30 0.51 0.46 92 1011.5
20260506154004 15 203 4.8 12.9 0.28 0.48 0.43 91 1011.5
20260506153504 15 210 4.8 11.3 0.30 0.46 0.43 91 1011.5
20260506153005 16 223 1.6 8.0 0.30 0.43 0.41 90 1011.4
20260506152004 16 278 3.2 14.5 0.33 0.38 0.38 88 1011.4
20260506151504 16 205 4.8 12.9 0.28 0.30 0.30 88 1011.4
20260506151004 16 154 1.6 12.9 0.23 0.25 0.25 87 1011.5
20260506150004 16 206 1.6 11.3 0.18 0.20 0.20 87 1011.5
20260506145504 16 205 3.2 11.3 0.15 0.18 0.18 87 1011.5
20260506145004 16 223 4.8 9.7 0.15 0.18 0.18 87 1011.4
20260506144504 16 213 1.6 4.8 0.15 0.15 0.15 86 1011.2
20260506144004 16 190 3.2 9.7 0.13 0.15 0.15 85 1011.4
20260506143504 17 228 4.8 16.1 0.13 0.13 0.13 83 1011.4
20260506143005 17 219 4.8 14.5 0.10 0.10 0.10 81 1011.5
20260506142504 17 204 3.2 11.3 0.05 0.08 0.08 80 1011.6
20260506142004 17 203 3.2 14.5 0.03 0.05 0.05 78 1011.5
20260506141504 17 194 1.6 14.5 0.03 0.03 0.03 78 1011.6
20260506141004 17 185 3.2 9.7 0.03 0.03 0.03 77 1011.5
20260506140504 18 274 3.2 8.0 0.03 0.03 0.03 76 1011.4
20260506140004 18 233 3.2 16.1 0.03 0.03 0.03 75 1011.3
20260506135504 18 211 6.4 12.9 0.03 0.03 0.03 74 1011.1
20260506135004 18 223 3.2 19.3 0.03 0.03 0.03 74 1011.1
20260506134504 18 201 4.8 16.1 0.03 0.03 0.03 74 1011.1
20260506134004 18 204 6.4 16.1 0.03 0.03 0.03 74 1011.1
20260506133504 18 273 6.4 12.9 0.03 0.03 0.03 74 1011.2
20260506133005 18 211 4.8 20.9 0.03 0.03 0.03 75 1011.2
20260506131504 18 222 4.8 14.5 0.00 0.00 0.00 74 1011.3
20260506131004 18 234 8.0 16.1 0.00 0.00 0.00 73 1011.3
20260506130504 18 233 4.8 12.9 0.00 0.00 0.00 73 1011.5
20260506130005 18 191 4.8 14.5 0.00 0.00 0.00 74 1011.5
20260506125004 18 206 6.4 11.3 0.00 0.00 0.00 72 1011.6
20260506124504 18 191 3.2 12.9 0.00 0.00 0.00 72 1011.5
20260506124004 18 218 8.0 27.4 0.00 0.00 0.00 72 1011.4
20260506123504 18 210 6.4 19.3 0.00 0.00 0.00 72 1011.1
20260506122504 18 192 8.0 22.5 0.00 0.00 0.00 72 1011.3
20260506122004 18 214 6.4 14.5 0.00 0.00 0.00 73 1011.2
20260506121504 17 173 4.8 14.5 0.00 0.00 0.00 74 1011.3
20260506121004 17 199 8.0 14.5 0.00 0.00 0.00 73 1011.1
20260506120005 17 209 8.0 14.5 0.00 0.00 0.00 74 1011.1
20260506115506 17 197 9.7 19.3 0.00 0.00 0.00 74 1011.1
20260506115004 17 215 8.0 20.9 0.00 0.00 0.00 75 1011.0
20260506114504 17 213 8.0 16.1 0.00 0.00 0.00 75 1011.1
20260506114005 17 213 8.0 22.5 0.00 0.00 0.00 75 1011.0
20260506113504 17 208 6.4 14.5 0.00 0.00 0.00 76 1011.1
20260506113005 17 206 9.7 16.1 0.00 0.00 0.00 75 1011.0
20260506112504 17 192 8.0 20.9 0.00 0.00 0.00 75 1011.0
20260506112004 17 210 8.0 16.1 0.00 0.00 0.00 76 1010.9
20260506111504 17 214 9.7 16.1 0.00 0.00 0.00 76 1011.1
20260506111004 17 201 9.7 19.3 0.00 0.00 0.00 76 1011.1
20260506110004 17 202 9.7 14.5 0.00 0.00 0.00 76 1010.9
20260506105504 17 206 9.7 16.1 0.00 0.00 0.00 76 1010.9
20260506105004 17 199 9.7 19.3 0.00 0.00 0.00 76 1011.0
20260506104004 17 211 3.2 16.1 0.00 0.00 0.00 77 1010.9
20260506103004 17 215 8.0 22.5 0.00 0.00 0.00 76 1010.9
20260506102503 17 220 8.0 16.1 0.00 0.00 0.00 77 1010.9
20260506102004 17 201 11.3 20.9 0.00 0.00 0.00 76 1010.7
20260506101504 17 210 11.3 19.3 0.00 0.00 0.00 76 1010.8
20260506100504 17 201 9.7 19.3 0.00 0.00 0.00 76 1010.7
20260506100005 17 207 8.0 14.5 0.00 0.00 0.00 76 1010.9
20260506095504 17 206 4.8 12.9 0.00 0.00 0.00 76 1010.9
20260506094504 17 205 8.0 20.9 0.00 0.00 0.00 76 1010.8
20260506094004 17 214 8.0 14.5 0.00 0.00 0.00 76 1010.8
20260506093504 17 216 8.0 14.5 0.00 0.00 0.00 76 1010.8
20260506093004 17 213 8.0 14.5 0.00 0.00 0.00 75 1010.8
20260506092504 17 162 8.0 19.3 0.00 0.00 0.00 75 1010.7
20260506092004 17 213 8.0 14.5 0.00 0.00 0.00 75 1010.7
20260506091503 17 203 4.8 16.1 0.00 0.00 0.00 75 1010.8
20260506091004 18 211 6.4 19.3 0.00 0.00 0.00 74 1010.7
20260506090504 18 215 6.4 14.5 0.00 0.00 0.00 74 1010.8
20260506085504 18 221 8.0 14.5 0.00 0.00 0.00 73 1010.9
20260506085004 18 208 8.0 19.3 0.00 0.00 0.00 72 1010.9
20260506084504 18 185 4.8 12.9 0.00 0.00 0.00 72 1010.9
20260506083504 18 209 6.4 16.1 0.00 0.00 0.00 71 1010.8
20260506082004 18 187 8.0 14.5 0.00 0.00 0.00 70 1010.9
20260506081504 18 200 8.0 14.5 0.00 0.00 0.00 70 1010.9
20260506081004 18 205 8.0 22.5 0.00 0.00 0.00 70 1011.0
20260506080504 18 192 9.7 22.5 0.00 0.00 0.00 70 1010.9
20260506073505 18 188 6.4 12.9 0.00 0.00 0.00 70 1011.1
20260506073004 18 182 8.0 16.1 0.00 0.00 0.00 69 1011.1
20260506072504 18 202 4.8 11.3 0.00 0.00 0.00 70 1011.2
20260506072004 18 221 6.4 14.5 0.00 0.00 0.00 69 1011.3
20260506071504 18 200 4.8 14.5 0.00 0.00 0.00 69 1011.3
20260506071004 19 207 8.0 14.5 0.00 0.00 0.00 68 1011.3
20260506070505 18 208 9.7 20.9 0.00 0.00 0.00 68 1011.3
20260506062503 19 203 9.7 19.3 0.00 0.00 0.00 66 1011.7
20260506062004 19 212 3.2 11.3 0.00 0.00 0.00 66 1011.7
20260506061504 19 186 9.7 14.5 0.00 0.00 0.00 66 1011.7
20260506061004 19 199 6.4 12.9 0.00 0.00 0.00 66 1011.7
20260506060504 19 182 3.2 11.3 0.00 0.00 0.00 67 1011.7
20260506051004 19 217 3.2 12.9 0.00 0.00 0.00 65 1012.1
20260506050504 19 213 4.8 12.9 0.00 0.00 0.00 65 1012.1
20260506045003 19 206 9.7 16.1 0.00 0.00 0.00 63 1012.2
20260506044504 19 188 4.8 16.1 0.00 0.00 0.00 64 1012.2
20260506044004 19 209 6.4 12.9 0.00 0.00 0.00 63 1012.2
20260506043505 19 210 8.0 16.1 0.00 0.00 0.00 62 1012.2
20260506043004 19 212 6.4 14.5 0.00 0.00 0.00 62 1012.1
20260506042504 19 221 4.8 11.3 0.00 0.00 0.00 62 1012.2
20260506042004 19 219 9.7 19.3 0.00 0.00 0.00 61 1012.1
20260506041004 19 195 4.8 14.5 0.00 0.00 0.00 62 1012.1
20260506040005 19 203 6.4 14.5 0.00 0.00 0.00 61 1012.1
20260506035504 20 211 8.0 20.9 0.00 0.00 0.00 60 1012.1
20260506035004 20 217 6.4 14.5 0.00 0.00 0.00 61 1012.1
20260506034504 20 190 8.0 14.5 0.00 0.00 0.00 61 1012.1
20260506033504 20 216 8.0 12.9 0.00 0.00 0.00 60 1012.0
20260506033004 20 196 9.7 24.1 0.00 0.00 0.00 60 1012.0
20260506032504 20 189 8.0 14.5 0.00 0.00 0.00 60 1012.0
20260506032004 20 191 9.7 19.3 0.00 0.00 0.00 59 1012.0
20260506031504 20 194 8.0 14.5 0.00 0.00 0.00 59 1012.0
20260506031004 20 205 8.0 14.5 0.00 0.00 0.00 59 1012.1
20260506030504 20 192 6.4 14.5 0.00 0.00 0.00 58 1012.1
20260506030004 20 204 4.8 14.5 0.00 0.00 0.00 57 1012.0
20260506025504 20 209 6.4 14.5 0.00 0.00 0.00 56 1012.1
20260506025004 21 201 8.0 14.5 0.00 0.00 0.00 55 1012.1
20260506024504 21 208 6.4 16.1 0.00 0.00 0.00 54 1012.1
20260506024005 21 201 4.8 16.1 0.00 0.00 0.00 53 1012.1
20260506023504 21 220 8.0 16.1 0.00 0.00 0.00 52 1012.2
20260506023004 21 200 6.4 14.5 0.00 0.00 0.00 52 1012.1
20260506022004 21 199 9.7 19.3 0.00 0.00 0.00 51 1012.1
20260506021504 21 194 11.3 20.9 0.00 0.00 0.00 50 1012.0
20260506021004 21 190 9.7 16.1 0.00 0.00 0.00 50 1012.1
20260506020504 22 210 11.3 19.3 0.00 0.00 0.00 49 1012.1
20260506015504 22 187 8.0 19.3 0.00 0.00 0.00 49 1012.0
20260506015004 22 208 8.0 19.3 0.00 0.00 0.00 48 1012.0
20260506014504 22 203 8.0 19.3 0.00 0.00 0.00 48 1012.0
20260506014004 22 198 9.7 16.1 0.00 0.00 0.00 47 1011.8
20260506013504 22 185 8.0 16.1 0.00 0.00 0.00 47 1011.7
20260506012504 22 209 9.7 20.9 0.00 0.00 0.00 46 1011.7
20260506012004 22 193 8.0 19.3 0.00 0.00 0.00 45 1011.6
20260506011504 22 194 9.7 22.5 0.00 0.00 0.00 45 1011.6